Flag for Germany Weather past 2 weeks in Herford, North Rhine-Westphalia, Germany

Now
45 °F

Passing clouds.


Feels Like: 43 °F
Forecast: 40 / 64 °F
Wind: 3 mph from Southeast

Location: Bueckeburg

Current Time: Apr 20, 2015 at 12:10:58 AM

Latest Report: Apr 19, 2015 at 11:20 PM


Visibility: N/A

Pressure: 30.27 "Hg

Humidity: 71%

Dew point: 36 °F

Location of HerfordLocation

Historic Weather in Herford — Graph

°F

Herford temperature yesterday

Maximum temperature yesterday: 59 °F (at 4:20 PM)
Minimum temperature yesterday: 39 °F (at 12:20 AM)
Average temperature yesterday: 48 °F

Past Weeks' High & Low Weather Summary

 TemperatureHumidityPressure
High73 °F (Apr 15, 3:20 PM)100% (Apr 5, 3:20 AM)30.60 "Hg (Apr 5, 3:20 AM)
Low28 °F (Apr 5, 6:20 AM)33% (Apr 6, 5:20 PM)29.89 "Hg (Apr 15, 6:20 PM)
Average49 °F66%30.24 "Hg
* Reported Apr 4 10:20 PM — Apr 19 10:20 PM, Herford, Weather by CustomWeather, © 2015

Note: Actual official high and low records may vary slightly from our data, if they occured in-between our weather recording intervals... More about our weather records

Advertising

Herford weather history for previous 24 hours

 ConditionsComfort  
Time TempWeatherWind HumidityBarometerVisibility
10:20 PM
Sun, Apr 19
46 °FPassing clouds.No wind71%30.24 "HgN/A
9:20 PM50 °FPassing clouds.1 mph58%30.24 "HgN/A
8:20 PM54 °FPassing clouds.3 mph51%30.21 "HgN/A
7:20 PM57 °FPassing clouds.6 mph44%30.21 "HgN/A
6:20 PM57 °FPassing clouds.6 mph41%30.21 "HgN/A
5:20 PM59 °FPassing clouds.9 mph45%30.21 "HgN/A
4:20 PM59 °FPassing clouds.8 mph45%30.18 "HgN/A
3:20 PM57 °FPassing clouds.3 mph48%30.21 "HgN/A
2:20 PM55 °FPassing clouds.5 mph51%30.21 "HgN/A
1:20 PM55 °FPassing clouds.3 mph51%30.18 "HgN/A
12:20 PM52 °FPassing clouds.3 mph62%30.21 "HgN/A
11:20 AM48 °FPassing clouds.3 mph71%30.21 "HgN/A
10:49 AM46 °FPassing clouds.2 mph71%30.21 "HgN/A
10:20 AM45 °FPartly sunny.5 mph81%30.21 "HgN/A
9:20 AM43 °FPartly sunny.2 mph87%30.21 "HgN/A
8:20 AM41 °FLow clouds.3 mph87%30.21 "HgN/A
7:20 AM41 °FLow clouds.3 mph87%30.21 "Hg6 mi
6:20 AM41 °FLow clouds.2 mph87%30.18 "Hg6 mi
5:20 AM41 °FLow clouds.3 mph87%30.21 "HgN/A
4:20 AM41 °FLow clouds.2 mph87%30.21 "Hg6 mi
3:20 AM41 °FLow clouds.2 mph87%30.21 "HgN/A
2:20 AM39 °FPassing clouds.1 mph87%30.24 "HgN/A
1:20 AM39 °FPassing clouds.No wind81%30.27 "HgN/A
12:20 AM39 °FPassing clouds.No wind75%30.24 "HgN/A
Weather by CustomWeather, © 2015

See weather overviewHow to use our weather pages